Tracking 18843 objects as of 20-November-2017
HD Live streaming from Space Station
objects crossing your sky now

FENGYUN 1C DEB

Track FENGYUN 1C DEB now!
10-day predictions


NORAD ID: 36141
Int'l Code: 1999-025DRN
Perigee: 797.2 km
Apogee: 1,001.2 km
Inclination: 98.5 °
Period: 102.8 minutes
Semi major axis: 7270 km
RCS: 0.0157 m2 (small)
Launch date: May 10, 1999
Source: People's Republic of China (PRC)
Launch site: Taiyaun Space Center, China (TSC)

Note: This is SATELLITE DEBRIS
aabbcc
Your satellite tracking list
Your tracking list is empty




NASA's NSSDC Master Catalog

Two Line Element Set (TLE):
1 36141U 99025DRN 17307.43049753 +.00001348 +00000-0 +85917-3 0  9992
2 36141 098.4896 010.3011 0140300 338.7496 020.7878 14.00494971440420
Source of the keplerian elements: AFSPC